User: anonymous   Login
Location: Banios
(43.0451°N, 0.2335°E)
Time: 17:17:02
(UTC+00:00)
Language:

CZ-4B R/B - Orbit

View from above orbital plane
View from above orbital plane
View from above satellite
View from above satellite

Ground track
Ground track

The orbit data is extracted from the following two-line orbital elements,

1 33410U 08053C   21112.87831303  .00001023  00000-0  77136-4 0  9991
2 33410  97.8926 108.5696 0118062 159.6645 200.9338 14.99489922681134
Epoch (UTC): 22 April 2021 21:04:46
Eccentricity: 0.0118062
inclination: 97.8926°
perigee height: 486 km
apogee height: 650 km
right ascension of ascending node: 108.5696°
argument of perigee: 159.6645°
revolutions per day: 14.99489922
mean anomaly at epoch: 200.9338°
orbit number at epoch: 68113

The dashed part of the orbit path shows where the satellite is in the earth's shadow,  

DLR